| time (UTC) | temp F | wind direction | speed MPH | gust MPH | rain 1hr in | rain 24hr in | rain mn in | humidity % | barometer mb |
| 20260507150025 | 57 | 345 | 8.0 | 21.0 | 0.00 | 0.02 | 0.00 | 86 | 1016.1 |
| 20260507144525 | 57 | 38 | 8.0 | 19.0 | 0.00 | 0.02 | 0.00 | 87 | 1015.8 |
| 20260507143026 | 57 | 23 | 12.0 | 20.0 | 0.00 | 0.02 | 0.00 | 87 | 1015.8 |
| 20260507141520 | 56 | 45 | 11.0 | 20.0 | 0.00 | 0.02 | 0.00 | 87 | 1015.8 |
| 20260507140026 | 56 | 315 | 9.0 | 17.0 | 0.00 | 0.02 | 0.00 | 87 | 1016.4 |
| 20260507134517 | 57 | 78 | 5.0 | 16.0 | 0.00 | 0.02 | 0.00 | 87 | 1016.1 |
| 20260507133015 | 57 | 28 | 9.0 | 22.0 | 0.00 | 0.02 | 0.00 | 87 | 1015.0 |
| 20260507131511 | 57 | 65 | 10.0 | 17.0 | 0.00 | 0.02 | 0.00 | 87 | 1015.1 |
| 20260507130009 | 57 | 71 | 11.0 | 17.0 | 0.00 | 0.02 | 0.00 | 86 | 1015.9 |
| 20260507124512 | 58 | 46 | 9.0 | 15.0 | 0.00 | 0.02 | 0.00 | 86 | 1015.5 |
| 20260507123003 | 58 | 5 | 7.0 | 18.0 | 0.00 | 0.02 | 0.00 | 86 | 1015.2 |
| 20260507121601 | 59 | 17 | 9.0 | 21.0 | 0.00 | 0.02 | 0.00 | 85 | 1015.0 |
| 20260507120058 | 59 | 5 | 5.0 | 16.0 | 0.00 | 0.02 | 0.00 | 85 | 1014.7 |
| 20260507114555 | 59 | 355 | 8.0 | 15.0 | 0.00 | 0.02 | 0.00 | 85 | 1014.3 |
| 20260507113053 | 59 | 31 | 8.0 | 18.0 | 0.00 | 0.02 | 0.00 | 85 | 1014.3 |
| 20260507111551 | 59 | 60 | 11.0 | 18.0 | 0.00 | 0.02 | 0.00 | 85 | 1014.2 |
| 20260507110057 | 60 | 65 | 7.0 | 12.0 | 0.00 | 0.02 | 0.00 | 86 | 1014.0 |
| 20260507104546 | 60 | 15 | 10.0 | 14.0 | 0.00 | 0.02 | 0.00 | 86 | 1013.6 |
| 20260507103043 | 60 | 24 | 9.0 | 18.0 | 0.00 | 0.02 | 0.00 | 86 | 1013.7 |
| 20260507101558 | 60 | 13 | 6.0 | 13.0 | 0.00 | 0.02 | 0.00 | 86 | 1013.3 |
| 20260507100042 | 61 | 30 | 7.0 | 14.0 | 0.00 | 0.02 | 0.00 | 86 | 1013.4 |
| 20260507094553 | 61 | 24 | 8.0 | 13.0 | 0.00 | 0.02 | 0.00 | 86 | 1013.3 |
| 20260507093039 | 61 | 55 | 5.0 | 10.0 | 0.00 | 0.02 | 0.00 | 86 | 1013.4 |
| 20260507091553 | 61 | 40 | 4.0 | 12.0 | 0.00 | 0.02 | 0.00 | 86 | 1013.3 |
| 20260507090048 | 61 | 30 | 5.0 | 13.0 | 0.00 | 0.02 | 0.00 | 86 | 1013.1 |
| 20260507084537 | 61 | 53 | 6.0 | 11.0 | 0.00 | 0.02 | 0.00 | 86 | 1013.2 |
| 20260507083036 | 61 | 17 | 3.0 | 9.0 | 0.00 | 0.02 | 0.00 | 86 | 1013.6 |
| 20260507081549 | 60 | 33 | 3.0 | 9.0 | 0.00 | 0.02 | 0.00 | 87 | 1013.3 |
| 20260507080034 | 60 | 36 | 5.0 | 10.0 | 0.00 | 0.02 | 0.00 | 87 | 1013.6 |
| 20260507074538 | 60 | 22 | 6.0 | 10.0 | 0.00 | 0.02 | 0.00 | 87 | 1013.7 |
| 20260507073040 | 60 | 33 | 1.0 | 8.0 | 0.00 | 0.02 | 0.00 | 87 | 1013.7 |
| 20260507071532 | 60 | 5 | 7.0 | 12.0 | 0.00 | 0.02 | 0.00 | 87 | 1013.6 |
| 20260507070030 | 60 | 15 | 5.0 | 10.0 | 0.00 | 0.02 | 0.00 | 87 | 1013.7 |
| 20260507064529 | 60 | 14 | 4.0 | 9.0 | 0.00 | 0.02 | 0.00 | 87 | 1013.6 |
| 20260507063027 | 60 | 34 | 2.0 | 10.0 | 0.00 | 0.02 | 0.00 | 87 | 1013.5 |
| 20260507061532 | 60 | 54 | 2.0 | 15.0 | 0.00 | 0.02 | 0.00 | 87 | 1013.3 |
| 20260507060030 | 60 | 25 | 9.0 | 17.0 | 0.00 | 0.02 | 0.00 | 87 | 1013.0 |
| 20260507054523 | 60 | 15 | 8.0 | 14.0 | 0.00 | 0.02 | 0.00 | 87 | 1013.2 |
| 20260507053018 | 60 | 32 | 5.0 | 12.0 | 0.00 | 0.02 | 0.00 | 87 | 1013.0 |
| 20260507051517 | 60 | 42 | 7.0 | 14.0 | 0.00 | 0.02 | 0.00 | 87 | 1012.4 |
| 20260507050027 | 60 | 16 | 6.0 | 11.0 | 0.00 | 0.02 | 0.00 | 87 | 1012.4 |
| 20260507044525 | 60 | 68 | 9.0 | 14.0 | 0.00 | 0.02 | 0.02 | 86 | 1011.7 |
| 20260507043007 | 60 | 48 | 3.0 | 11.0 | 0.00 | 0.02 | 0.02 | 86 | 1012.3 |
| 20260507041506 | 60 | 48 | 5.0 | 13.0 | 0.00 | 0.02 | 0.02 | 86 | 1012.1 |
| 20260507040004 | 60 | 63 | 4.0 | 10.0 | 0.00 | 0.02 | 0.02 | 86 | 1012.2 |
| 20260507034502 | 61 | 18 | 5.0 | 12.0 | 0.00 | 0.02 | 0.02 | 86 | 1012.4 |
| 20260507033102 | 61 | 71 | 5.0 | 13.0 | 0.00 | 0.02 | 0.02 | 86 | 1011.9 |
| 20260507031555 | 61 | 33 | 6.0 | 10.0 | 0.00 | 0.02 | 0.02 | 85 | 1011.8 |
| 20260507030105 | 61 | 22 | 7.0 | 14.0 | 0.00 | 0.02 | 0.02 | 85 | 1011.5 |
| 20260507024554 | 62 | 36 | 6.0 | 14.0 | 0.00 | 0.02 | 0.02 | 85 | 1011.7 |
| 20260507023048 | 62 | 59 | 7.0 | 12.0 | 0.00 | 0.02 | 0.02 | 85 | 1011.3 |
| 20260507021550 | 62 | 24 | 9.0 | 14.0 | 0.00 | 0.02 | 0.02 | 85 | 1011.0 |
| 20260507020046 | 62 | 71 | 5.0 | 13.0 | 0.00 | 0.02 | 0.02 | 85 | 1010.9 |
| 20260507014552 | 62 | 75 | 3.0 | 10.0 | 0.00 | 0.02 | 0.02 | 85 | 1010.6 |
| 20260507013037 | 63 | 10 | 5.0 | 11.0 | 0.00 | 0.02 | 0.02 | 85 | 1010.4 |
| 20260507011534 | 63 | 34 | 8.0 | 12.0 | 0.00 | 0.02 | 0.02 | 84 | 1010.2 |
| 20260507010031 | 63 | 13 | 6.0 | 14.0 | 0.00 | 0.02 | 0.02 | 84 | 1010.0 |
| 20260507004528 | 63 | 31 | 7.0 | 13.0 | 0.00 | 0.02 | 0.02 | 84 | 1009.8 |
| 20260507003025 | 63 | 64 | 8.0 | 15.0 | 0.00 | 0.02 | 0.02 | 83 | 1009.8 |
| 20260507001524 | 64 | 28 | 6.0 | 16.0 | 0.00 | 0.02 | 0.02 | 83 | 1009.4 |
| 20260507000027 | 64 | 31 | 7.0 | 13.0 | 0.00 | 0.02 | 0.02 | 82 | 1009.3 |
| 20260506234518 | 65 | 30 | 7.0 | 13.0 | 0.00 | 0.02 | 0.02 | 81 | 1009.1 |
| 20260506233015 | 66 | 24 | 6.0 | 15.0 | 0.00 | 0.02 | 0.02 | 80 | 1009.0 |
| 20260506231513 | 67 | 67 | 2.0 | 10.0 | 0.00 | 0.02 | 0.02 | 80 | 1009.1 |
| 20260506230012 | 68 | 57 | 5.0 | 14.0 | 0.00 | 0.02 | 0.02 | 79 | 1008.6 |
| 20260506224510 | 69 | 71 | 4.0 | 14.0 | 0.00 | 0.02 | 0.02 | 78 | 1008.4 |
| 20260506223009 | 71 | 54 | 7.0 | 14.0 | 0.00 | 0.02 | 0.02 | 76 | 1008.2 |
| 20260506221508 | 73 | 28 | 8.0 | 13.0 | 0.00 | 0.02 | 0.02 | 76 | 1007.8 |
| 20260506220008 | 73 | 31 | 7.0 | 13.0 | 0.00 | 0.02 | 0.02 | 75 | 1008.0 |
| 20260506214507 | 75 | 43 | 6.0 | 12.0 | 0.00 | 0.02 | 0.02 | 75 | 1008.1 |
| 20260506213013 | 76 | 32 | 2.0 | 11.0 | 0.00 | 0.02 | 0.02 | 75 | 1008.0 |
| 20260506211509 | 76 | 16 | 6.0 | 11.0 | 0.00 | 0.02 | 0.02 | 76 | 1007.9 |
| 20260506210008 | 75 | 50 | 6.0 | 12.0 | 0.00 | 0.02 | 0.02 | 77 | 1008.0 |
| 20260506204506 | 77 | 28 | 3.0 | 8.0 | 0.00 | 0.02 | 0.02 | 75 | 1008.1 |
| 20260506203003 | 78 | 34 | 8.0 | 12.0 | 0.00 | 0.02 | 0.02 | 75 | 1008.0 |
| 20260506201506 | 79 | 59 | 7.0 | 12.0 | 0.00 | 0.02 | 0.02 | 72 | 1008.2 |
| 20260506200002 | 79 | 47 | 3.0 | 6.0 | 0.00 | 0.02 | 0.02 | 73 | 1008.4 |
| 20260506194502 | 79 | 37 | 4.0 | 9.0 | 0.00 | 0.02 | 0.02 | 74 | 1008.5 |
| 20260506193058 | 77 | 30 | 2.0 | 9.0 | 0.00 | 0.02 | 0.02 | 79 | 1008.6 |
| 20260506191555 | 76 | 51 | 1.0 | 10.0 | 0.00 | 0.02 | 0.02 | 82 | 1008.8 |
| 20260506190052 | 74 | 27 | 3.0 | 9.0 | 0.00 | 0.02 | 0.02 | 82 | 1009.0 |
| 20260506184555 | 74 | 40 | 3.0 | 6.0 | 0.00 | 0.02 | 0.02 | 83 | 1009.2 |
| 20260506183050 | 73 | 41 | 0.0 | 8.0 | 0.00 | 0.02 | 0.02 | 84 | 1009.3 |
| 20260506181551 | 73 | 26 | 2.0 | 8.0 | 0.00 | 0.02 | 0.02 | 84 | 1009.1 |
| 20260506180050 | 71 | 32 | 3.0 | 9.0 | 0.00 | 0.02 | 0.02 | 85 | 1009.4 |
| 20260506174549 | 70 | 20 | 3.0 | 6.0 | 0.00 | 0.02 | 0.02 | 86 | 1009.6 |
| 20260506173107 | 70 | 20 | 1.0 | 6.0 | 0.00 | 0.02 | 0.02 | 86 | 1009.7 |
| 20260506171555 | 69 | 16 | 3.0 | 7.0 | 0.00 | 0.02 | 0.02 | 87 | 1009.4 |
| 20260506170050 | 69 | 54 | 2.0 | 9.0 | 0.00 | 0.02 | 0.02 | 87 | 1009.4 |
| 20260506164546 | 67 | 35 | 2.0 | 9.0 | 0.00 | 0.02 | 0.02 | 87 | 1009.4 |
| 20260506163059 | 67 | 38 | 3.0 | 8.0 | 0.01 | 0.02 | 0.02 | 87 | 1009.2 |
| 20260506161544 | 67 | 61 | 2.0 | 9.0 | 0.01 | 0.02 | 0.02 | 87 | 1009.1 |
| 20260506160042 | 67 | 48 | 5.0 | 10.0 | 0.02 | 0.02 | 0.02 | 87 | 1008.9 |
| 20260506154538 | 69 | 11 | 6.0 | 17.0 | 0.02 | 0.02 | 0.02 | 86 | 1008.7 |
| 20260506153038 | 72 | 196 | 0.0 | 0.0 | 0.01 | 0.01 | 0.01 | 87 | 1008.4 |
| 20260506151532 | 72 | 196 | 1.0 | 3.0 | 0.01 | 0.01 | 0.01 | 87 | 1008.3 |